Weather History for KHHW - June, 2013

Change the Weather History Date:

Saturday, June 29, 2013

  Actual Average Record
Temperature  
Mean Temperature 86 °F -  
Max Temperature 97 °F 92 °F 97 °F (2013)
Min Temperature 77 °F 69 °F 70 °F (2015)
Cooling Degree Days 22    
Growing Degree Days 36 (Base 50)    
Moisture  
Dew Point 66 °F    
Average Humidity 53    
Maximum Humidity 84    
Minimum Humidity 29    
Precipitation  
Precipitation 0.00 in - - ()
Sea Level Pressure  
Sea Level Pressure 29.85 in    
Wind  
Wind Speed 4 mph (North)    
Max Wind Speed 15 mph    
Max Gust Speed 22 mph    
Visibility 10 miles    
Events      
Averages and records for this station are not official NWS values.
T = Trace of Precipitation, MM = Missing Value Source: NWS Daily Summary

Daily Weather History Graph

Daily Weather History Graph

Search for Another Location

Airport or City:

Trip Planner

Search our weather history database for the weather conditions in past years. The results will help you decide how hot, cold, wet, or windy it might be!

Date:

Astronomy

Jun. 29, 2013 Rise Set
Actual Time 6:13 AM CDT 8:37 PM CDT
Civil Twilight 5:44 AM CDT 9:06 PM CDT
Nautical Twilight 5:08 AM CDT 9:42 PM CDT
Astronomical Twilight 4:29 AM CDT 10:21 PM CDT
Moon 12:25 AM CDT (6/29) 1:05 PM CDT (6/29)
Length of Visible Light 15h 22m
Length of Day
14h 23m
Waning Gibbous, 55% of the Moon is Illuminated
Jun 29
Waning Gibbous
Jun 29
Last Quarter
Jul 8
New
Jul 15
First Quarter
Jul 22
Full

Hourly Weather History & Observations

Time (CDT) Temp. Heat Index Dew Point Humidity Pressure Visibility Wind Dir Wind Speed Gust Speed Precip Events Conditions
12:15 AM 84.6 °F 89.1 °F 70.2 °F 62% 29.84 in 10.0 mi Calm Calm - N/A   Clear
12:35 AM 84.2 °F 88.7 °F 70.2 °F 63% 29.84 in 10.0 mi WNW 3.5 mph - N/A   Clear
12:55 AM 82.6 °F 86.8 °F 70.7 °F 67% 29.84 in 10.0 mi Calm Calm - N/A   Clear
1:15 AM 82.8 °F 87.2 °F 70.9 °F 67% 29.85 in 10.0 mi WNW 3.5 mph - N/A   Clear
1:35 AM 82.4 °F 87.0 °F 71.4 °F 69% 29.85 in 10.0 mi Calm Calm - N/A   Scattered Clouds
1:55 AM 81.1 °F 85.4 °F 71.8 °F 73% 29.85 in 10.0 mi NNW 3.5 mph - N/A   Scattered Clouds
2:15 AM 80.6 °F 84.7 °F 72.0 °F 75% 29.85 in 10.0 mi Calm Calm - N/A   Clear
2:35 AM 79.9 °F - 72.0 °F 77% 29.85 in 10.0 mi NNW 3.5 mph - N/A   Clear
2:55 AM 78.8 °F - 72.5 °F 81% 29.86 in 10.0 mi Calm Calm - N/A   Clear
3:15 AM 77.4 °F - 72.3 °F 84% 29.86 in 10.0 mi Calm Calm - N/A   Clear
3:35 AM 77.9 °F - 72.5 °F 83% 29.86 in 10.0 mi NNW 3.5 mph - N/A   Clear
3:55 AM 78.1 °F - 72.0 °F 81% 29.86 in 10.0 mi NNW 3.5 mph - N/A   Clear
4:15 AM 78.1 °F - 71.8 °F 81% 29.86 in 10.0 mi North 4.6 mph - N/A   Clear
4:35 AM 78.4 °F - 71.6 °F 79% 29.86 in 10.0 mi North 4.6 mph - N/A   Clear
4:55 AM 78.8 °F - 71.1 °F 77% 29.86 in 10.0 mi North 3.5 mph - N/A   Scattered Clouds
5:15 AM 78.3 °F - 71.2 °F 79% 29.87 in 10.0 mi North 5.8 mph - N/A   Mostly Cloudy
5:35 AM 78.1 °F - 70.7 °F 78% 29.86 in 10.0 mi North 4.6 mph - N/A   Mostly Cloudy
5:55 AM 77.2 °F - 70.7 °F 80% 29.87 in 10.0 mi North 4.6 mph - N/A   Scattered Clouds
6:15 AM 77.0 °F - 70.7 °F 81% 29.88 in 10.0 mi North 4.6 mph - N/A   Scattered Clouds
6:35 AM 77.0 °F - 70.7 °F 81% 29.88 in 10.0 mi Calm Calm - N/A   Scattered Clouds
6:55 AM 77.0 °F - 70.7 °F 81% 29.88 in 10.0 mi North 3.5 mph - N/A   Clear
7:15 AM 77.7 °F - 71.2 °F 80% 29.88 in 10.0 mi North 3.5 mph - N/A   Clear
7:35 AM 79.5 °F - 71.4 °F 76% 29.88 in 10.0 mi NNW 3.5 mph - N/A   Clear
7:55 AM 81.3 °F 85.4 °F 71.2 °F 71% 29.89 in 10.0 mi North 4.6 mph - N/A   Clear
8:15 AM 82.9 °F 87.2 °F 70.5 °F 66% 29.89 in 10.0 mi North 4.6 mph - N/A   Clear
8:35 AM 84.2 °F 88.4 °F 70.0 °F 62% 29.89 in 10.0 mi North 5.8 mph - N/A   Clear
8:55 AM 86.2 °F 90.4 °F 69.3 °F 57% 29.89 in 10.0 mi North 4.6 mph - N/A   Clear
9:15 AM 87.3 °F 89.8 °F 66.7 °F 50% 29.90 in 10.0 mi North 5.8 mph - N/A   Clear
9:35 AM 88.2 °F 90.3 °F 65.5 °F 47% 29.90 in 10.0 mi North 5.8 mph - N/A   Clear
9:55 AM 89.6 °F 91.1 °F 64.6 °F 43% 29.90 in 10.0 mi North 9.2 mph - N/A   Clear
10:15 AM 90.3 °F 91.5 °F 63.9 °F 41% 29.90 in 10.0 mi North 5.8 mph - N/A   Clear
10:35 AM 90.9 °F 93.1 °F 65.3 °F 43% 29.89 in 10.0 mi North 6.9 mph - N/A   Clear
10:55 AM 91.2 °F 92.9 °F 64.8 °F 41% 29.89 in 10.0 mi North 8.1 mph - N/A   Clear
11:15 AM 91.9 °F 92.2 °F 61.3 °F 36% 29.89 in 10.0 mi North 11.5 mph 18.4 mph N/A   Clear
11:35 AM 92.7 °F 92.9 °F 61.3 °F 35% 29.90 in 10.0 mi North 10.4 mph 21.9 mph N/A   Clear
11:55 AM 93.2 °F 93.7 °F 61.7 °F 35% 29.90 in 10.0 mi North 10.4 mph 20.7 mph N/A   Clear
12:15 PM 93.6 °F 94.6 °F 63.0 °F 36% 29.89 in 10.0 mi North 9.2 mph 16.1 mph N/A   Clear
12:35 PM 93.7 °F 94.9 °F 62.8 °F 36% 29.88 in 10.0 mi NNE 9.2 mph - N/A   Clear
12:55 PM 94.6 °F 95.9 °F 63.0 °F 35% 29.88 in 10.0 mi North 11.5 mph 17.3 mph N/A   Clear
1:15 PM 95.0 °F 96.5 °F 63.5 °F 35% 29.87 in 10.0 mi NNE 9.2 mph - N/A   Clear
1:35 PM 94.5 °F 95.2 °F 62.4 °F 34% 29.87 in 10.0 mi North 8.1 mph - N/A   Clear
1:55 PM 96.1 °F 96.4 °F 61.2 °F 31% 29.87 in 10.0 mi NNW 15.0 mph 21.9 mph N/A   Clear
2:15 PM 96.1 °F 96.9 °F 61.7 °F 32% 29.87 in 10.0 mi North 10.4 mph 19.6 mph N/A   Clear
2:35 PM 95.9 °F 95.7 °F 60.1 °F 30% 29.86 in 10.0 mi North 10.4 mph - N/A   Clear
2:55 PM 95.7 °F 95.9 °F 60.3 °F 31% 29.85 in 10.0 mi North 11.5 mph 21.9 mph N/A   Clear
3:15 PM 96.1 °F 96.9 °F 62.1 °F 32% 29.85 in 10.0 mi NNW 10.4 mph 19.6 mph N/A   Clear
3:35 PM 96.8 °F 96.7 °F 60.1 °F 29% 29.85 in 10.0 mi North 13.8 mph 20.7 mph N/A   Clear
3:55 PM 96.1 °F 96.4 °F 61.0 °F 31% 29.84 in 10.0 mi North 12.7 mph 19.6 mph N/A   Clear
4:15 PM 95.7 °F 95.5 °F 59.5 °F 30% 29.84 in 10.0 mi North 11.5 mph 20.7 mph N/A   Clear
4:35 PM 95.2 °F 95.1 °F 59.7 °F 31% 29.83 in 10.0 mi North 8.1 mph 20.7 mph N/A   Clear
4:55 PM 95.7 °F 95.9 °F 61.0 °F 31% 29.83 in 10.0 mi North 10.4 mph - N/A   Clear
5:15 PM 95.0 °F 95.6 °F 62.1 °F 33% 29.82 in 10.0 mi North 10.4 mph - N/A   Clear
5:35 PM 95.2 °F 95.9 °F 61.9 °F 33% 29.81 in 10.0 mi North 8.1 mph - N/A   Clear
5:55 PM 95.2 °F 94.7 °F 59.5 °F 30% 29.81 in 10.0 mi North 13.8 mph 17.3 mph N/A   Clear
6:15 PM 95.0 °F 94.8 °F 59.9 °F 31% 29.81 in 10.0 mi North 10.4 mph - N/A   Clear
6:35 PM 94.3 °F 93.7 °F 59.7 °F 31% 29.81 in 10.0 mi North 10.4 mph - N/A   Clear
6:55 PM 94.1 °F 93.9 °F 60.3 °F 32% 29.80 in 10.0 mi North 6.9 mph - N/A   Clear
7:15 PM 93.0 °F 93.4 °F 61.5 °F 35% 29.81 in 10.0 mi North 5.8 mph - N/A   Clear
7:35 PM 91.6 °F 92.0 °F 61.7 °F 37% 29.81 in 10.0 mi North 4.6 mph - N/A   Clear
7:55 PM 90.1 °F 90.9 °F 62.8 °F 40% 29.81 in 10.0 mi North 3.5 mph - N/A   Clear
8:15 PM 88.9 °F 89.4 °F 62.1 °F 41% 29.81 in 10.0 mi North 3.5 mph - N/A   Clear
8:35 PM 86.7 °F 87.3 °F 62.6 °F 44% 29.81 in 10.0 mi NNW 3.5 mph - N/A   Clear
8:55 PM 84.7 °F 85.6 °F 63.1 °F 48% 29.81 in 10.0 mi NW 3.5 mph - N/A   Clear
9:15 PM 84.0 °F 85.2 °F 63.3 °F 50% 29.81 in 10.0 mi Calm Calm - N/A   Clear
9:35 PM 84.2 °F 85.0 °F 62.8 °F 48% 29.81 in 10.0 mi Calm Calm - N/A   Clear
9:55 PM 82.8 °F 84.0 °F 63.5 °F 52% 29.82 in 10.0 mi Calm Calm - N/A   Clear
10:15 PM 82.9 °F 83.8 °F 62.8 °F 50% 29.82 in 10.0 mi Calm Calm - N/A   Clear
10:35 PM 82.2 °F 83.5 °F 63.3 °F 53% 29.82 in 10.0 mi Calm Calm - N/A   Clear
10:55 PM 80.6 °F 82.2 °F 63.9 °F 57% 29.83 in 10.0 mi WNW 3.5 mph - N/A   Clear
11:15 PM 79.7 °F - 64.2 °F 59% 29.83 in 10.0 mi West 4.6 mph - N/A   Clear
11:35 PM 78.8 °F - 64.4 °F 61% 29.83 in 10.0 mi WNW 3.5 mph - N/A   Clear
11:55 PM 77.7 °F - 64.6 °F 64% 29.83 in 10.0 mi WNW 3.5 mph - N/A   Clear